Location: Astroquest
(35.1187°N, 89.7105°W)
Time: 07:13:32
(UTC-06:00)

Hubble Space Telescope - Visible Passes

Search period start: 23 November 2017 00:00
Search period end: 03 December 2017 00:00
Orbit: 537 x 541 km, 28.5° (Epoch: 22 November)

Date Brightness Start Highest point End Pass type
(mag) Time Alt. Az. Time Alt. Az. Time Alt. Az.
23 Nov 2.8 04:16:45 23° SE 04:16:45 23° SE 04:18:46 10° ESE visible
23 Nov 2.6 05:52:35 10° WSW 05:55:51 23° SSW 05:59:07 10° SE visible
24 Nov 3.3 04:07:10 18° SE 04:07:10 18° SE 04:08:29 10° ESE visible
24 Nov 2.7 05:42:32 10° WSW 05:45:33 20° SSW 05:48:35 10° SSE visible
25 Nov 3.7 03:57:36 13° SE 03:57:36 13° SE 03:58:10 10° SE visible
25 Nov 2.8 05:32:57 12° SW 05:35:14 17° SSW 05:37:58 10° SSE visible
26 Nov 3.0 05:23:23 12° SW 05:24:55 14° SSW 05:27:09 10° SSE visible
27 Nov 3.1 05:13:50 11° SSW 05:14:35 12° SSW 05:16:03 10° S visible
